📊 Raw Sensor Data
Showing records 49751 to 49775 of 85,123 total
| ID | Distance (ft) | Battery V | Battery A | Int Temp (°F) | Int Humid (%) | Ext Temp (°F) | Solar V | RSSI | SNR | Time Stamp |
|---|---|---|---|---|---|---|---|---|---|---|
| 35385 | -- | 3.96 | -5 | 36 | 40 | 38 | 0.00 | -77 | 8 | 03/19/2025 01:30 AM |
| 35384 | -- | 4.02 | -5 | 36 | 40 | 37 | 0.00 | -77 | 8 | 03/19/2025 01:15 AM |
| 35383 | -- | 3.96 | -5 | 38 | 39 | 38 | 0.10 | -77 | 8 | 03/19/2025 01:00 AM |
| 35382 | -- | 3.97 | -5 | 38 | 39 | 41 | 0.00 | -77 | 9 | 03/19/2025 12:45 AM |
| 35381 | 15.1 | 4.02 | -5 | 38 | 39 | 39 | 0.00 | -78 | 8 | 03/19/2025 12:30 AM |
| 35380 | 15.1 | 3.97 | -5 | 39 | 39 | 40 | 0.00 | -77 | 8 | 03/19/2025 12:15 AM |
| 35379 | 15.1 | 3.97 | -5 | 40 | 39 | 41 | 0.00 | -77 | 9 | 03/19/2025 12:00 AM |
| 35378 | 15.1 | 4.02 | -5 | 41 | 39 | 44 | 0.00 | -75 | 8 | 03/18/2025 11:45 PM |
| 35377 | 15.1 | 3.97 | -5 | 40 | 40 | 44 | 0.00 | -77 | 8 | 03/18/2025 11:30 PM |
| 35376 | 15.1 | 3.97 | -5 | 41 | 40 | 42 | 0.00 | -76 | 9 | 03/18/2025 11:15 PM |
| 35375 | -- | 4.03 | -5 | 43 | 39 | 47 | 0.00 | -76 | 8 | 03/18/2025 11:00 PM |
| 35374 | -- | 4.03 | -5 | 44 | 39 | 47 | 0.00 | -77 | 8 | 03/18/2025 10:45 PM |
| 35373 | -- | 3.97 | -5 | 44 | 39 | 47 | 0.00 | -77 | 8 | 03/18/2025 10:30 PM |
| 35372 | 15.1 | 4.03 | -5 | 43 | 40 | 48 | 0.00 | -78 | 7 | 03/18/2025 10:15 PM |
| 35371 | 15.1 | 3.98 | -5 | 43 | 40 | 45 | 0.10 | -77 | 8 | 03/18/2025 10:00 PM |
| 35370 | 15.1 | 3.98 | -5 | 44 | 40 | 47 | 0.00 | -77 | 8 | 03/18/2025 09:45 PM |
| 35369 | 15.1 | 4.03 | -5 | 43 | 41 | 45 | 0.10 | -77 | 8 | 03/18/2025 09:30 PM |
| 35368 | -- | 3.98 | -5 | 45 | 41 | 47 | 0.00 | -77 | 8 | 03/18/2025 09:15 PM |
| 35367 | 15.1 | 4.03 | -5 | 46 | 41 | 48 | 0.00 | -77 | 7 | 03/18/2025 09:00 PM |
| 35366 | 15.1 | 3.98 | -5 | 46 | 42 | 49 | 0.00 | -77 | 8 | 03/18/2025 08:45 PM |
| 35365 | 15.1 | 3.98 | -5 | 47 | 42 | 48 | 0.00 | -78 | 8 | 03/18/2025 08:30 PM |
| 35364 | 15.1 | 3.98 | -5 | 48 | 43 | 52 | 0.00 | -78 | 7 | 03/18/2025 08:15 PM |
| 35363 | 15.0 | 3.98 | -5 | 48 | 44 | 51 | 0.10 | -78 | 8 | 03/18/2025 08:00 PM |
| 35362 | 15.1 | 3.98 | -5 | 50 | 45 | 52 | 0.10 | -78 | 8 | 03/18/2025 07:45 PM |
| 35361 | 15.1 | 4.04 | -5 | 51 | 46 | 53 | 0.30 | -78 | 7 | 03/18/2025 07:30 PM |